Lamar, CO

7:58 PM MDT on August 23, 2017 (GMT -0600)
Lamar Municipal

Weather History for KLAA - October, 2011

Change the Weather History Date:

Tuesday, October 25, 2011

  Actual Average Record
Temperature  
Mean Temperature 60 °F 49 °F  
Max Temperature 73 °F 67 °F 91 °F (1959)
Min Temperature 46 °F 32 °F 19 °F (1975)
Degree Days  
Heating Degree Days 5 16  
Month to date heating degree days 221 280  
Since 1 July heating degree days 273 363  
Cooling Degree Days 0 0  
Month to date cooling degree days 22 8  
Year to date cooling degree days 1533 1120  
Growing Degree Days 9 (Base 50)    
Moisture  
Dew Point 28 °F    
Average Humidity 40    
Maximum Humidity 61    
Minimum Humidity 19    
Precipitation  
Precipitation 0.00 in 0.02 in 0.40 in (1918)
Month to date precipitation 0.15  
Snow  
Snow 0.00 in - - ()
Month to date snowfall 0.0  
Snow Depth 0.00 in    
Sea Level Pressure  
Sea Level Pressure 29.83 in    
Wind  
Wind Speed 12 mph (NE)    
Max Wind Speed 21 mph    
Max Gust Speed 26 mph    
Visibility 10 miles    
Events      
T = Trace of Precipitation, MM = Missing Value Source: NWS Daily Summary

Daily Weather History Graph

Daily Weather History Graph

Search for Another Location

Airport or City:

Trip Planner

Search our weather history database for the weather conditions in past years. The results will help you decide how hot, cold, wet, or windy it might be!

Date:

Astronomy

Oct. 25, 2011 Rise Set
Actual Time 7:09 AM MDT 6:00 PM MDT
Civil Twilight 6:42 AM MDT 6:26 PM MDT
Nautical Twilight 6:11 AM MDT 6:57 PM MDT
Astronomical Twilight 5:40 AM MDT 7:28 PM MDT
Moon 5:44 AM MDT (10/25) 5:02 PM MDT (10/25)
Length of Visible Light 11h 44m
Length of Day
10h 50m
Waning Crescent, 2% of the Moon is Illuminated
Oct 25
Waning Crescent
Oct 26
New
Nov 2
First Quarter
Nov 10
Full
Nov 18
Last Quarter

Hourly Weather History & Observations

Time (MDT) Temp. Dew Point Humidity Pressure Visibility Wind Dir Wind Speed Gust Speed Precip Events Conditions
12:53 AM 55.0 °F 19.9 °F 25% 29.70 in 10.0 mi WNW 5.8 mph - N/A   Clear
1:53 AM 54.0 °F 21.9 °F 29% 29.71 in 10.0 mi WSW 6.9 mph - N/A   Clear
2:53 AM 60.1 °F 23.0 °F 24% 29.69 in 10.0 mi WSW 12.7 mph - N/A   Clear
3:53 AM 46.9 °F 24.1 °F 41% 29.72 in 10.0 mi WNW 5.8 mph - N/A   Clear
4:53 AM 48.9 °F 23.0 °F 36% 29.74 in 10.0 mi SW 9.2 mph - N/A   Clear
5:53 AM 51.1 °F 23.0 °F 33% 29.77 in 10.0 mi South 12.7 mph - N/A   Clear
6:53 AM 51.1 °F 21.0 °F 31% 29.79 in 10.0 mi SSW 6.9 mph - N/A   Clear
7:53 AM 50.0 °F 21.9 °F 33% 29.85 in 10.0 mi SW 6.9 mph - N/A   Clear
8:53 AM 53.1 °F 25.0 °F 34% 29.87 in 10.0 mi Calm Calm - N/A   Clear
9:53 AM 63.0 °F 25.0 °F 24% 29.88 in 10.0 mi Calm Calm - N/A   Clear
10:53 AM 68.0 °F 24.1 °F 19% 29.88 in 10.0 mi NNE 8.1 mph - N/A   Clear
11:53 AM 69.1 °F 33.1 °F 26% 29.87 in 10.0 mi NNE 15.0 mph - N/A   Clear
12:53 PM 72.0 °F 33.1 °F 24% 29.85 in 10.0 mi Variable 6.9 mph - N/A   Clear
1:53 PM 71.1 °F 32.0 °F 24% 29.83 in 10.0 mi ENE 12.7 mph 19.6 mph N/A   Clear
2:53 PM 72.0 °F 32.0 °F 23% 29.80 in 10.0 mi East 16.1 mph 21.9 mph N/A   Clear
3:53 PM 70.0 °F 33.1 °F 26% 29.83 in 10.0 mi East 16.1 mph 21.9 mph N/A   Clear
4:53 PM 66.9 °F 34.0 °F 30% 29.84 in 10.0 mi ENE 17.3 mph - N/A   Clear
5:53 PM 63.0 °F 34.0 °F 34% 29.88 in 10.0 mi ENE 15.0 mph - N/A   Mostly Cloudy
7:53 PM 57.9 °F 35.1 °F 42% 29.94 in 10.0 mi NE 17.3 mph 24.2 mph N/A   Mostly Cloudy
8:53 PM 55.9 °F 35.1 °F 45% 29.93 in 10.0 mi NE 15.0 mph 23.0 mph N/A   Mostly Cloudy
10:53 PM 51.1 °F 36.0 °F 56% 29.97 in 10.0 mi NE 18.4 mph 24.2 mph N/A   Scattered Clouds
11:53 PM 48.9 °F 35.1 °F 59% 30.00 in 10.0 mi NE 13.8 mph - N/A   Mostly Cloudy